Time,TemperatureF,DewpointF,PressureIn,WindDirection,WindDirectionDegrees,WindSpeedMPH,WindSpeedGustMPH,Humidity,HourlyPrecipIn,Conditions,Clouds,dailyrainin,SoftwareType,DateUTC
2013-09-21 00:00:00,55.2,15.9,29.94,WNW,292,0.0,0.0,21,0.00,,,0.00,WUHU21623XXSP,2013-09-21 07:00:00,
2013-09-21 00:05:00,55.2,15.9,29.94,NNE,22,0.0,0.0,21,0.00,,,0.00,WUHU21623XXSP,2013-09-21 07:05:00,
2013-09-21 00:10:00,54.7,14.6,29.94,NE,45,0.0,0.0,20,0.00,,,0.00,WUHU21623XXSP,2013-09-21 07:10:00,
2013-09-21 00:16:00,54.3,14.1,29.94,SSE,157,0.0,0.0,20,0.00,,,0.00,WUHU21623XXSP,2013-09-21 07:16:00,
2013-09-21 00:21:00,54.1,14.1,29.94,SSE,157,0.0,0.0,20,0.00,,,0.00,WUHU21623XXSP,2013-09-21 07:21:00,
2013-09-21 00:26:00,53.8,13.8,29.94,ENE,67,0.0,0.0,20,0.00,,,0.00,WUHU21623XXSP,2013-09-21 07:26:00,
2013-09-21 00:31:00,53.4,13.3,29.94,NE,45,0.0,0.0,20,0.00,,,0.00,WUHU21623XXSP,2013-09-21 07:31:00,
2013-09-21 00:36:00,53.4,11.8,29.94,NE,45,0.0,0.0,20,0.00,,,0.00,WUHU21623XXSP,2013-09-21 07:36:00,
2013-09-21 00:46:00,52.9,11.4,29.93,NE,45,0.0,0.0,19,0.00,,,0.00,WUHU21623XXSP,2013-09-21 07:46:00,
2013-09-21 00:51:00,52.7,11.2,29.93,NE,45,0.0,0.0,19,0.00,,,0.00,WUHU21623XXSP,2013-09-21 07:51:00,
2013-09-21 00:56:00,52.5,11.1,29.93,NE,45,0.0,0.0,19,0.00,,,0.00,WUHU21623XXSP,2013-09-21 07:56:00,
2013-09-21 01:01:00,52.3,10.9,29.93,NE,45,0.0,0.0,19,0.00,,,0.00,WUHU21623XXSP,2013-09-21 08:01:00,
2013-09-21 01:06:00,52.2,10.8,29.93,NE,45,0.0,0.0,19,0.00,,,0.00,WUHU21623XXSP,2013-09-21 08:06:00,
2013-09-21 01:12:00,51.6,10.4,29.93,NE,45,0.0,0.0,19,0.00,,,0.00,WUHU21623XXSP,2013-09-21 08:12:00,
2013-09-21 01:17:00,51.6,10.4,29.93,SE,135,0.0,0.0,19,0.00,,,0.00,WUHU21623XXSP,2013-09-21 08:17:00,
2013-09-21 01:22:00,51.4,8.7,29.93,ESE,112,0.0,0.0,18,0.00,,,0.00,WUHU21623XXSP,2013-09-21 08:22:00,
2013-09-21 01:27:00,50.9,8.3,29.93,NE,45,0.0,0.0,18,0.00,,,0.00,WUHU21623XXSP,2013-09-21 08:27:00,
2013-09-21 01:32:00,50.7,8.1,29.93,NE,45,0.0,0.0,18,0.00,,,0.00,WUHU21623XXSP,2013-09-21 08:32:00,
2013-09-21 01:37:00,50.5,6.5,29.93,NE,45,0.0,0.0,17,0.00,,,0.00,WUHU21623XXSP,2013-09-21 08:37:00,
2013-09-21 01:43:00,50.4,4.8,29.93,ESE,112,0.0,0.0,16,0.00,,,0.00,WUHU21623XXSP,2013-09-21 08:43:00,
2013-09-21 01:48:00,50.2,4.7,29.93,WNW,292,0.0,0.0,16,0.00,,,0.00,WUHU21623XXSP,2013-09-21 08:48:00,
2013-09-21 01:53:00,49.8,4.4,29.92,SSW,202,0.0,0.0,16,0.00,,,0.00,WUHU21623XXSP,2013-09-21 08:53:00,
2013-09-21 01:58:00,49.8,4.4,29.93,SSW,202,0.0,0.0,16,0.00,,,0.00,WUHU21623XXSP,2013-09-21 08:58:00,
2013-09-21 02:03:00,49.6,4.2,29.92,East,90,0.0,0.0,16,0.00,,,0.00,WUHU21623XXSP,2013-09-21 09:03:00,
2013-09-21 02:09:00,49.1,2.3,29.92,NNE,22,0.0,0.0,15,0.00,,,0.00,WUHU21623XXSP,2013-09-21 09:09:00,
2013-09-21 02:14:00,48.9,2.2,29.92,NE,45,0.0,0.0,15,0.00,,,0.00,WUHU21623XXSP,2013-09-21 09:14:00,
2013-09-21 02:20:00,48.9,2.2,29.92,ENE,67,0.0,0.0,16,0.00,,,0.00,WUHU21623XXSP,2013-09-21 09:20:00,
2013-09-21 02:25:00,48.7,3.5,29.92,NE,45,0.0,0.0,16,0.00,,,0.00,WUHU21623XXSP,2013-09-21 09:25:00,
2013-09-21 02:30:00,48.6,3.3,29.92,East,90,0.0,0.0,16,0.00,,,0.00,WUHU21623XXSP,2013-09-21 09:30:00,
2013-09-21 02:35:00,48.4,1.7,29.92,ESE,112,0.0,0.0,15,0.00,,,0.00,WUHU21623XXSP,2013-09-21 09:35:00,
2013-09-21 02:40:00,48.2,1.6,29.91,WNW,292,0.0,0.0,15,0.00,,,0.00,WUHU21623XXSP,2013-09-21 09:40:00,
2013-09-21 02:45:00,48.0,1.4,29.91,North,0,0.0,0.0,15,0.00,,,0.00,WUHU21623XXSP,2013-09-21 09:45:00,
2013-09-21 02:50:00,48.0,1.4,29.91,NE,45,0.0,0.0,15,0.00,,,0.00,WUHU21623XXSP,2013-09-21 09:50:00,
2013-09-21 02:55:00,47.8,1.3,29.91,NE,45,0.0,0.0,15,0.00,,,0.00,WUHU21623XXSP,2013-09-21 09:55:00,
2013-09-21 03:00:00,47.7,-0.3,29.91,NE,45,0.0,0.0,14,0.00,,,0.00,WUHU21623XXSP,2013-09-21 10:00:00,
2013-09-21 03:05:00,47.7,-0.3,29.91,NE,45,0.0,0.0,14,0.00,,,0.00,WUHU21623XXSP,2013-09-21 10:05:00,
2013-09-21 03:10:00,47.5,-0.5,29.91,SSE,157,0.0,0.0,14,0.00,,,0.00,WUHU21623XXSP,2013-09-21 10:10:00,
2013-09-21 03:15:00,47.3,0.9,29.91,NE,45,0.0,0.0,15,0.00,,,0.00,WUHU21623XXSP,2013-09-21 10:15:00,
2013-09-21 03:20:00,47.1,0.7,29.91,NE,45,0.0,0.0,15,0.00,,,0.00,WUHU21623XXSP,2013-09-21 10:20:00,
2013-09-21 03:29:00,47.1,-0.8,29.91,ESE,112,0.0,0.0,14,0.00,,,0.00,WUHU21623XXSP,2013-09-21 10:29:00,
2013-09-21 03:34:00,46.9,0.6,29.91,ENE,67,0.0,0.0,15,0.00,,,0.00,WUHU21623XXSP,2013-09-21 10:34:00,
2013-09-21 03:41:00,46.9,0.6,29.90,ENE,67,0.0,0.0,15,0.00,,,0.00,WUHU21623XXSP,2013-09-21 10:41:00,
2013-09-21 03:48:00,46.8,1.9,29.90,NE,45,0.0,0.0,16,0.00,,,0.00,WUHU21623XXSP,2013-09-21 10:48:00,
2013-09-21 03:54:00,46.8,0.4,29.90,SSE,157,0.0,0.0,15,0.00,,,0.00,WUHU21623XXSP,2013-09-21 10:54:00,
2013-09-21 03:59:00,46.6,1.9,29.90,NE,45,0.0,0.0,16,0.00,,,0.00,WUHU21623XXSP,2013-09-21 10:59:00,
2013-09-21 04:05:00,46.6,1.8,29.91,NE,45,0.0,0.0,16,0.00,,,0.00,WUHU21623XXSP,2013-09-21 11:05:00,
2013-09-21 04:10:00,46.6,1.8,29.90,NE,45,0.0,0.0,16,0.00,,,0.00,WUHU21623XXSP,2013-09-21 11:10:00,
2013-09-21 04:15:00,46.6,0.3,29.90,NE,45,0.0,0.0,15,0.00,,,0.00,WUHU21623XXSP,2013-09-21 11:15:00,
2013-09-21 04:20:00,46.6,1.8,29.90,NE,45,0.0,0.0,16,0.00,,,0.00,WUHU21623XXSP,2013-09-21 11:20:00,
2013-09-21 04:26:00,46.2,1.5,29.90,SSE,157,0.0,0.0,16,0.00,,,0.00,WUHU21623XXSP,2013-09-21 11:26:00,
2013-09-21 04:31:00,46.2,1.5,29.90,ESE,112,0.0,0.0,16,0.00,,,0.00,WUHU21623XXSP,2013-09-21 11:31:00,
2013-09-21 04:36:00,46.2,1.5,29.90,ENE,67,0.0,0.0,16,0.00,,,0.00,WUHU21623XXSP,2013-09-21 11:36:00,
2013-09-21 04:43:00,46.2,1.5,29.90,ENE,67,0.0,0.0,16,0.00,,,0.00,WUHU21623XXSP,2013-09-21 11:43:00,
2013-09-21 04:48:00,46.2,1.5,29.89,ENE,67,0.0,0.0,16,0.00,,,0.00,WUHU21623XXSP,2013-09-21 11:48:00,
2013-09-21 04:53:00,46.0,1.3,29.89,ENE,67,0.0,0.0,16,0.00,,,0.00,WUHU21623XXSP,2013-09-21 11:53:00,
2013-09-21 04:58:00,46.0,1.3,29.89,ENE,67,0.0,0.0,16,0.00,,,0.00,WUHU21623XXSP,2013-09-21 11:58:00,
2013-09-21 05:03:00,46.0,2.8,29.89,NE,45,0.0,0.0,17,0.00,,,0.00,WUHU21623XXSP,2013-09-21 12:03:00,
2013-09-21 05:08:00,46.0,2.8,29.89,NE,45,0.0,0.0,17,0.00,,,0.00,WUHU21623XXSP,2013-09-21 12:08:00,
2013-09-21 05:13:00,46.0,2.8,29.89,ENE,67,0.0,0.0,17,0.00,,,0.00,WUHU21623XXSP,2013-09-21 12:13:00,
2013-09-21 05:20:00,46.0,5.8,29.88,NE,45,0.0,0.0,17,0.00,,,0.00,WUHU21623XXSP,2013-09-21 12:20:00,
2013-09-21 05:25:00,46.0,5.8,29.88,NE,45,0.0,0.0,19,0.00,,,0.00,WUHU21623XXSP,2013-09-21 12:25:00,
2013-09-21 05:30:00,46.0,5.8,29.88,SW,225,0.0,0.0,19,0.00,,,0.00,WUHU21623XXSP,2013-09-21 12:30:00,
2013-09-21 05:37:00,46.0,7.2,29.88,SE,135,0.0,0.0,20,0.00,,,0.00,WUHU21623XXSP,2013-09-21 12:37:00,
2013-09-21 05:45:00,46.0,7.2,29.88,North,0,0.0,0.0,20,0.00,,,0.00,WUHU21623XXSP,2013-09-21 12:45:00,
2013-09-21 05:50:00,46.0,8.1,29.88,SE,135,0.0,0.0,21,0.00,,,0.00,WUHU21623XXSP,2013-09-21 12:50:00,
2013-09-21 05:56:00,46.0,8.1,29.88,ESE,112,0.0,0.0,21,0.00,,,0.00,WUHU21623XXSP,2013-09-21 12:56:00,
2013-09-21 06:01:00,46.2,9.2,29.88,WNW,292,0.0,0.0,22,0.00,,,0.00,WUHU21623XXSP,2013-09-21 13:01:00,
2013-09-21 06:06:00,46.2,9.2,29.88,NE,45,0.0,0.0,22,0.00,,,0.00,WUHU21623XXSP,2013-09-21 13:06:00,
2013-09-21 06:22:00,46.8,11.5,29.88,NE,45,0.0,0.0,24,0.00,,,0.00,WUHU21623XXSP,2013-09-21 13:22:00,
2013-09-21 06:27:00,46.9,12.6,29.88,East,90,0.0,0.0,25,0.00,,,0.00,WUHU21623XXSP,2013-09-21 13:27:00,
2013-09-21 06:32:00,46.9,12.6,29.88,WNW,292,0.0,0.0,25,0.00,,,0.00,WUHU21623XXSP,2013-09-21 13:32:00,
2013-09-21 06:37:00,46.9,15.3,29.88,North,0,0.0,0.0,28,0.00,,,0.00,WUHU21623XXSP,2013-09-21 13:37:00,
2013-09-21 06:45:00,47.3,17.5,29.88,North,0,0.0,0.0,30,0.00,,,0.00,WUHU21623XXSP,2013-09-21 13:45:00,
2013-09-21 06:52:00,47.7,17.8,29.88,SSE,157,0.0,0.0,30,0.00,,,0.00,WUHU21623XXSP,2013-09-21 13:52:00,
2013-09-21 06:57:00,47.8,18.0,29.88,SSE,157,0.0,0.0,30,0.00,,,0.00,WUHU21623XXSP,2013-09-21 13:57:00,
2013-09-21 07:02:00,47.8,18.0,29.88,SSE,157,0.0,0.0,30,0.00,,,0.00,WUHU21623XXSP,2013-09-21 14:02:00,
2013-09-21 07:07:00,48.0,18.2,29.88,WNW,292,0.0,0.0,30,0.00,,,0.00,WUHU21623XXSP,2013-09-21 14:07:00,
2013-09-21 07:12:00,48.0,18.2,29.88,NNE,22,0.0,0.0,30,0.00,,,0.00,WUHU21623XXSP,2013-09-21 14:12:00,
2013-09-21 07:19:00,48.4,20.5,29.88,North,0,0.0,0.0,33,0.00,,,0.00,WUHU21623XXSP,2013-09-21 14:19:00,
2013-09-21 07:24:00,48.9,21.6,29.88,NNE,22,0.0,0.0,34,0.00,,,0.00,WUHU21623XXSP,2013-09-21 14:24:00,
2013-09-21 07:30:00,49.6,23.5,29.88,NNE,22,0.0,0.0,36,0.00,,,0.00,WUHU21623XXSP,2013-09-21 14:30:00,
2013-09-21 07:35:00,50.4,24.2,29.88,North,0,0.0,0.0,36,0.00,,,0.00,WUHU21623XXSP,2013-09-21 14:35:00,
2013-09-21 07:40:00,50.7,24.4,29.88,NNE,22,0.0,0.0,36,0.00,,,0.00,WUHU21623XXSP,2013-09-21 14:40:00,
2013-09-21 07:45:00,51.6,25.3,29.88,WNW,292,0.0,2.5,36,0.00,,,0.00,WUHU21623XXSP,2013-09-21 14:45:00,
2013-09-21 07:52:00,52.2,25.1,29.88,North,0,0.0,0.0,35,0.00,,,0.00,WUHU21623XXSP,2013-09-21 14:52:00,
2013-09-21 07:57:00,52.2,25.1,29.88,North,0,0.0,0.0,35,0.00,,,0.00,WUHU21623XXSP,2013-09-21 14:57:00,
2013-09-21 08:02:00,52.9,26.5,29.88,NNE,22,0.0,0.0,36,0.00,,,0.00,WUHU21623XXSP,2013-09-21 15:02:00,
2013-09-21 08:09:00,53.2,26.8,29.88,NE,45,0.0,0.0,36,0.00,,,0.00,WUHU21623XXSP,2013-09-21 15:09:00,
2013-09-21 08:14:00,53.4,26.9,29.88,East,90,0.0,0.0,36,0.00,,,0.00,WUHU21623XXSP,2013-09-21 15:14:00,
2013-09-21 08:19:00,53.8,27.9,29.88,NE,45,0.0,0.0,37,0.00,,,0.00,WUHU21623XXSP,2013-09-21 15:19:00,
2013-09-21 08:26:00,54.3,28.4,29.88,NE,45,0.0,0.0,37,0.00,,,0.00,WUHU21623XXSP,2013-09-21 15:26:00,
2013-09-21 08:31:00,54.3,28.4,29.87,South,180,0.0,0.0,37,0.00,,,0.00,WUHU21623XXSP,2013-09-21 15:31:00,
2013-09-21 08:36:00,54.7,28.7,29.87,ENE,67,0.0,0.0,37,0.00,,,0.00,WUHU21623XXSP,2013-09-21 15:36:00,
2013-09-21 08:42:00,55.0,28.9,29.87,NE,45,0.0,0.0,37,0.00,,,0.00,WUHU21623XXSP,2013-09-21 15:42:00,
2013-09-21 08:47:00,55.4,29.2,29.87,NW,315,0.0,0.0,37,0.00,,,0.00,WUHU21623XXSP,2013-09-21 15:47:00,
2013-09-21 08:52:00,55.8,29.7,29.87,East,90,0.0,0.0,37,0.00,,,0.00,WUHU21623XXSP,2013-09-21 15:52:00,
2013-09-21 09:02:00,56.8,31.4,29.87,ESE,112,0.0,0.0,38,0.00,,,0.00,WUHU21623XXSP,2013-09-21 16:02:00,
2013-09-21 09:19:00,58.8,32.4,29.87,SSE,157,1.1,1.1,37,0.00,,,0.00,WUHU21623XXSP,2013-09-21 16:19:00,
2013-09-21 09:24:00,59.2,32.7,29.87,SE,135,0.7,1.1,37,0.00,,,0.00,WUHU21623XXSP,2013-09-21 16:24:00,
2013-09-21 09:30:00,59.5,33.1,29.86,South,180,0.0,0.7,37,0.00,,,0.00,WUHU21623XXSP,2013-09-21 16:30:00,
2013-09-21 09:36:00,59.7,33.2,29.87,NNE,22,0.0,0.0,37,0.00,,,0.00,WUHU21623XXSP,2013-09-21 16:36:00,
2013-09-21 09:41:00,60.1,33.5,29.86,ESE,112,0.0,0.0,37,0.00,,,0.00,WUHU21623XXSP,2013-09-21 16:41:00,
2013-09-21 09:46:00,60.4,33.8,29.86,ESE,112,0.0,0.0,37,0.00,,,0.00,WUHU21623XXSP,2013-09-21 16:46:00,
2013-09-21 09:54:00,61.0,33.6,29.86,NE,45,4.3,4.3,36,0.00,,,0.00,WUHU21623XXSP,2013-09-21 16:54:00,
2013-09-21 09:59:00,61.5,33.9,29.85,SSW,202,6.9,6.9,36,0.00,,,0.00,WUHU21623XXSP,2013-09-21 16:59:00,
2013-09-21 10:04:00,61.7,34.1,29.85,ESE,112,0.7,6.9,36,0.00,,,0.00,WUHU21623XXSP,2013-09-21 17:04:00,
2013-09-21 10:13:00,62.2,34.7,29.85,South,180,2.0,2.0,36,0.00,,,0.00,WUHU21623XXSP,2013-09-21 17:13:00,
2013-09-21 10:19:00,62.4,34.9,29.85,SE,135,3.6,3.6,36,0.00,,,0.00,WUHU21623XXSP,2013-09-21 17:19:00,
2013-09-21 10:24:00,62.6,34.3,29.85,SSE,157,11.0,11.0,35,0.00,,,0.00,WUHU21623XXSP,2013-09-21 17:24:00,
2013-09-21 10:29:00,63.0,34.7,29.85,South,180,6.5,11.0,35,0.00,,,0.00,WUHU21623XXSP,2013-09-21 17:29:00,
2013-09-21 10:39:00,63.5,35.1,29.84,ESE,112,6.9,6.9,35,0.00,,,0.00,WUHU21623XXSP,2013-09-21 17:39:00,
2013-09-21 10:45:00,63.7,35.3,29.85,SE,135,5.4,6.9,35,0.00,,,0.00,WUHU21623XXSP,2013-09-21 17:45:00,
2013-09-21 10:51:00,63.9,35.5,29.85,SSE,157,6.3,6.3,35,0.00,,,0.00,WUHU21623XXSP,2013-09-21 17:51:00,
2013-09-21 11:00:00,63.7,35.3,29.84,SE,135,9.6,9.6,35,0.00,,,0.00,WUHU21623XXSP,2013-09-21 18:00:00,
2013-09-21 11:05:00,63.7,35.3,29.84,South,180,8.5,9.6,35,0.00,,,0.00,WUHU21623XXSP,2013-09-21 18:05:00,
2013-09-21 11:10:00,64.0,35.6,29.84,SSE,157,7.8,8.5,35,0.00,,,0.00,WUHU21623XXSP,2013-09-21 18:10:00,
2013-09-21 11:20:00,64.4,35.1,29.84,SE,135,8.5,8.5,34,0.00,,,0.00,WUHU21623XXSP,2013-09-21 18:20:00,
2013-09-21 11:25:00,64.4,35.2,29.84,SE,135,0.0,8.5,34,0.00,,,0.00,WUHU21623XXSP,2013-09-21 18:25:00,
2013-09-21 11:32:00,64.6,35.4,29.84,ESE,112,4.9,8.1,34,0.00,,,0.00,WUHU21623XXSP,2013-09-21 18:32:00,
2013-09-21 11:38:00,64.6,35.4,29.84,ESE,112,7.6,7.6,34,0.00,,,0.00,WUHU21623XXSP,2013-09-21 18:38:00,
2013-09-21 11:42:00,64.8,35.6,29.84,SSE,157,15.7,15.7,34,0.00,,,0.00,WUHU21623XXSP,2013-09-21 18:42:00,
2013-09-21 11:48:00,64.9,35.7,29.84,SSE,157,6.5,15.7,34,0.00,,,0.00,WUHU21623XXSP,2013-09-21 18:48:00,
2013-09-21 11:53:00,65.1,35.9,29.84,SE,135,11.4,11.4,34,0.00,,,0.00,WUHU21623XXSP,2013-09-21 18:53:00,
2013-09-21 12:01:00,65.3,35.3,29.85,ESE,112,0.0,11.4,33,0.00,,,0.00,WUHU21623XXSP,2013-09-21 19:01:00,
2013-09-21 12:06:00,65.1,35.9,29.85,ESE,112,4.0,4.0,34,0.00,,,0.00,WUHU21623XXSP,2013-09-21 19:06:00,
2013-09-21 12:11:00,64.9,35.0,29.85,SE,135,0.0,4.0,33,0.00,,,0.00,WUHU21623XXSP,2013-09-21 19:11:00,
2013-09-21 12:16:00,64.8,35.6,29.85,SSE,157,6.0,6.0,34,0.00,,,0.00,WUHU21623XXSP,2013-09-21 19:16:00,
2013-09-21 12:21:00,64.6,35.4,29.85,SSW,202,6.9,6.9,34,0.00,,,0.00,WUHU21623XXSP,2013-09-21 19:21:00,
2013-09-21 12:26:00,64.6,35.4,29.86,SSE,157,10.1,10.1,34,0.00,,,0.00,WUHU21623XXSP,2013-09-21 19:26:00,
2013-09-21 12:31:00,64.6,35.4,29.86,SSE,157,10.5,10.5,34,0.00,,,0.00,WUHU21623XXSP,2013-09-21 19:31:00,
2013-09-21 12:37:00,64.2,35.1,29.86,SSW,202,11.2,11.2,34,0.00,,,0.00,WUHU21623XXSP,2013-09-21 19:37:00,
2013-09-21 12:48:00,63.7,34.6,29.86,SE,135,0.0,0.0,34,0.00,,,0.00,WUHU21623XXSP,2013-09-21 19:48:00,
2013-09-21 12:53:00,63.5,34.4,29.86,East,90,5.8,5.8,34,0.00,,,0.00,WUHU21623XXSP,2013-09-21 19:53:00,
2013-09-21 12:58:00,63.3,34.3,29.86,SSE,157,0.0,5.8,34,0.00,,,0.00,WUHU21623XXSP,2013-09-21 19:58:00,
2013-09-21 13:05:00,63.3,34.3,29.86,SSE,157,0.7,0.7,34,0.00,,,0.00,WUHU21623XXSP,2013-09-21 20:05:00,
2013-09-21 13:10:00,63.3,35.0,29.87,SSW,202,0.9,0.9,35,0.00,,,0.00,WUHU21623XXSP,2013-09-21 20:10:00,
2013-09-21 13:15:00,63.1,34.8,29.88,SSW,202,5.1,5.1,35,0.00,,,0.00,WUHU21623XXSP,2013-09-21 20:15:00,
2013-09-21 13:20:00,62.6,33.6,29.88,South,180,0.0,5.1,34,0.00,,,0.00,WUHU21623XXSP,2013-09-21 20:20:00,
2013-09-21 13:25:00,62.1,33.1,29.89,SE,135,6.3,6.3,34,0.00,,,0.00,WUHU21623XXSP,2013-09-21 20:25:00,
2013-09-21 13:30:00,61.3,32.5,29.89,SSW,202,6.3,6.3,34,0.00,,,0.00,WUHU21623XXSP,2013-09-21 20:30:00,
2013-09-21 13:37:00,60.1,32.1,29.89,East,90,3.6,6.3,35,0.00,,,0.00,WUHU21623XXSP,2013-09-21 20:37:00,
2013-09-21 13:42:00,59.5,32.7,29.89,South,180,10.7,10.7,36,0.00,,,0.00,WUHU21623XXSP,2013-09-21 20:42:00,
2013-09-21 13:54:00,57.9,32.3,29.86,SSE,157,0.0,0.0,38,0.00,,,0.00,WUHU21623XXSP,2013-09-21 20:54:00,
2013-09-21 13:59:00,57.9,33.0,29.86,NE,45,0.0,0.0,39,0.00,,,0.00,WUHU21623XXSP,2013-09-21 20:59:00,
2013-09-21 14:04:00,57.9,33.7,29.85,NE,45,0.0,0.0,40,0.00,,,0.00,WUHU21623XXSP,2013-09-21 21:04:00,
2013-09-21 14:09:00,58.5,34.8,29.85,SE,135,0.0,0.0,41,0.00,,,0.00,WUHU21623XXSP,2013-09-21 21:09:00,
2013-09-21 14:14:00,58.6,35.0,29.84,SE,135,0.0,0.0,42,0.00,,,0.00,WUHU21623XXSP,2013-09-21 21:14:00,
2013-09-21 14:19:00,59.5,36.2,29.83,ENE,67,0.0,0.0,42,0.00,,,0.00,WUHU21623XXSP,2013-09-21 21:19:00,
2013-09-21 14:28:00,60.1,36.2,29.84,SSE,157,2.2,2.2,41,0.00,,,0.00,WUHU21623XXSP,2013-09-21 21:28:00,
2013-09-21 14:35:00,60.6,36.7,29.84,SSE,157,0.0,2.2,41,0.00,,,0.00,WUHU21623XXSP,2013-09-21 21:35:00,
2013-09-21 14:40:00,61.5,37.5,29.84,WNW,292,0.0,0.0,41,0.00,,,0.00,WUHU21623XXSP,2013-09-21 21:40:00,
2013-09-21 14:45:00,62.4,38.0,29.83,ESE,112,0.0,0.0,41,0.00,,,0.00,WUHU21623XXSP,2013-09-21 21:45:00,
2013-09-21 14:50:00,62.8,38.7,29.83,WNW,292,2.9,2.9,41,0.00,,,0.00,WUHU21623XXSP,2013-09-21 21:50:00,
2013-09-21 14:55:00,63.5,38.0,29.83,SW,225,0.0,2.9,39,0.00,,,0.00,WUHU21623XXSP,2013-09-21 21:55:00,
2013-09-21 15:00:00,64.0,38.5,29.83,South,180,4.5,4.5,39,0.00,,,0.00,WUHU21623XXSP,2013-09-21 22:00:00,
2013-09-21 15:07:00,64.0,37.1,29.83,SSW,202,12.8,12.8,37,0.00,,,0.00,WUHU21623XXSP,2013-09-21 22:07:00,
2013-09-21 15:12:00,63.7,36.8,29.83,SSE,157,0.0,12.8,37,0.00,,,0.00,WUHU21623XXSP,2013-09-21 22:12:00,
2013-09-21 15:20:00,63.7,36.8,29.83,SE,135,0.9,0.9,37,0.00,,,0.00,WUHU21623XXSP,2013-09-21 22:20:00,
2013-09-21 15:25:00,64.0,36.8,29.83,WNW,292,1.3,1.3,37,0.00,,,0.00,WUHU21623XXSP,2013-09-21 22:25:00,
2013-09-21 15:30:00,64.0,37.1,29.83,WSW,247,3.6,7.6,37,0.00,,,0.00,WUHU21623XXSP,2013-09-21 22:30:00,
2013-09-21 15:35:00,64.0,36.4,29.83,SW,225,6.0,7.6,36,0.00,,,0.00,WUHU21623XXSP,2013-09-21 22:35:00,
2013-09-21 15:40:00,63.7,36.2,29.83,North,0,0.0,6.0,36,0.00,,,0.00,WUHU21623XXSP,2013-09-21 22:40:00,
2013-09-21 15:45:00,63.5,36.0,29.83,North,0,0.0,0.0,35,0.00,,,0.00,WUHU21623XXSP,2013-09-21 22:45:00,
2013-09-21 15:50:00,63.1,34.8,29.83,South,180,4.9,4.9,35,0.00,,,0.00,WUHU21623XXSP,2013-09-21 22:50:00,
2013-09-21 15:55:00,63.0,34.7,29.83,South,180,0.0,4.9,35,0.00,,,0.00,WUHU21623XXSP,2013-09-21 22:55:00,
2013-09-21 16:00:00,62.6,34.3,29.83,South,180,3.6,3.6,35,0.00,,,0.00,WUHU21623XXSP,2013-09-21 23:00:00,
2013-09-21 16:05:00,62.2,34.0,29.84,South,180,9.2,9.2,35,0.00,,,0.00,WUHU21623XXSP,2013-09-21 23:05:00,
2013-09-21 16:10:00,61.2,33.4,29.84,South,180,21.0,21.0,35,0.00,,,0.00,WUHU21623XXSP,2013-09-21 23:10:00,
2013-09-21 16:17:00,59.7,31.8,29.86,SSW,202,3.6,9.4,35,0.00,,,0.00,WUHU21623XXSP,2013-09-21 23:17:00,
2013-09-21 16:22:00,59.2,31.6,29.86,SE,135,7.4,7.4,35,0.00,,,0.00,WUHU21623XXSP,2013-09-21 23:22:00,
2013-09-21 16:28:00,58.1,30.4,29.86,WSW,247,5.8,7.4,35,0.00,,,0.00,WUHU21623XXSP,2013-09-21 23:28:00,
2013-09-21 16:33:00,57.7,30.9,29.87,NNW,337,0.0,5.8,36,0.00,,,0.00,WUHU21623XXSP,2013-09-21 23:33:00,
2013-09-21 16:38:00,57.0,30.4,29.87,SW,225,1.8,2.5,37,0.00,,,0.00,WUHU21623XXSP,2013-09-21 23:38:00,
2013-09-21 16:43:00,56.3,31.2,29.86,South,180,16.6,16.6,38,0.00,,,0.00,WUHU21623XXSP,2013-09-21 23:43:00,
2013-09-21 16:48:00,55.9,31.2,29.86,SSE,157,3.1,16.6,39,0.00,,,0.00,WUHU21623XXSP,2013-09-21 23:48:00,
2013-09-21 16:53:00,55.0,30.4,29.87,SW,225,0.0,3.1,39,0.00,,,0.00,WUHU21623XXSP,2013-09-21 23:53:00,
2013-09-21 16:58:00,54.3,29.9,29.87,South,180,0.7,0.7,39,0.00,,,0.00,WUHU21623XXSP,2013-09-21 23:58:00,
2013-09-21 17:04:00,53.8,31.1,29.87,NW,315,2.0,2.0,42,0.00,,,0.00,WUHU21623XXSP,2013-09-22 00:04:00,
2013-09-21 17:13:00,53.4,31.9,29.87,WNW,292,0.0,2.0,44,0.00,,,0.00,WUHU21623XXSP,2013-09-22 00:13:00,
2013-09-21 17:18:00,53.2,32.3,29.88,WNW,292,0.0,0.0,46,0.00,,,0.00,WUHU21623XXSP,2013-09-22 00:18:00,
2013-09-21 17:23:00,52.9,32.5,29.87,West,270,3.6,3.6,46,0.00,,,0.00,WUHU21623XXSP,2013-09-22 00:23:00,
2013-09-21 17:34:00,52.5,31.7,29.87,SSE,157,2.2,2.2,45,0.00,,,0.00,WUHU21623XXSP,2013-09-22 00:34:00,
2013-09-21 17:39:00,52.7,31.8,29.87,West,270,0.0,2.2,45,0.00,,,0.00,WUHU21623XXSP,2013-09-22 00:39:00,
2013-09-21 17:45:00,52.5,31.7,29.87,WSW,247,3.8,3.8,45,0.00,,,0.00,WUHU21623XXSP,2013-09-22 00:45:00,
2013-09-21 17:50:00,52.3,31.5,29.87,West,270,0.0,3.8,45,0.00,,,0.00,WUHU21623XXSP,2013-09-22 00:50:00,
2013-09-21 17:55:00,52.2,31.3,29.86,SW,225,0.0,0.0,45,0.00,,,0.00,WUHU21623XXSP,2013-09-22 00:55:00,
2013-09-21 18:00:00,52.0,31.2,29.86,SSE,157,6.3,6.3,45,0.00,,,0.00,WUHU21623XXSP,2013-09-22 01:00:00,
2013-09-21 18:05:00,51.4,30.3,29.86,SSE,157,0.0,6.3,44,0.00,,,0.00,WUHU21623XXSP,2013-09-22 01:05:00,
2013-09-21 18:10:00,51.1,29.8,29.86,SSW,202,0.0,1.3,44,0.00,,,0.00,WUHU21623XXSP,2013-09-22 01:10:00,
2013-09-21 18:15:00,50.9,29.6,29.87,South,180,0.0,0.0,44,0.00,,,0.00,WUHU21623XXSP,2013-09-22 01:15:00,
2013-09-21 18:20:00,50.5,29.5,29.88,South,180,0.0,3.8,44,0.00,,,0.00,WUHU21623XXSP,2013-09-22 01:20:00,
2013-09-21 18:30:00,50.0,29.0,29.88,South,180,0.0,0.0,44,0.00,,,0.00,WUHU21623XXSP,2013-09-22 01:30:00,
2013-09-21 18:35:00,49.8,28.7,29.89,South,180,0.0,0.0,44,0.00,,,0.00,WUHU21623XXSP,2013-09-22 01:35:00,
2013-09-21 18:40:00,49.8,28.7,29.89,SW,225,0.9,0.9,44,0.00,,,0.00,WUHU21623XXSP,2013-09-22 01:40:00,
2013-09-21 18:45:00,49.8,28.7,29.88,WNW,292,0.0,0.9,44,0.00,,,0.00,WUHU21623XXSP,2013-09-22 01:45:00,
2013-09-21 18:50:00,49.8,28.7,29.88,North,0,0.0,0.0,44,0.00,,,0.00,WUHU21623XXSP,2013-09-22 01:50:00,
2013-09-21 18:55:00,49.8,28.7,29.88,North,0,0.0,0.0,44,0.00,,,0.00,WUHU21623XXSP,2013-09-22 01:55:00,
2013-09-21 19:00:00,49.6,28.5,29.89,East,90,0.0,0.0,44,0.00,,,0.00,WUHU21623XXSP,2013-09-22 02:00:00,
2013-09-21 19:07:00,49.3,28.1,29.89,SSE,157,0.0,0.0,44,0.00,,,0.00,WUHU21623XXSP,2013-09-22 02:07:00,
2013-09-21 19:12:00,49.1,28.0,29.89,SSE,157,0.0,0.0,44,0.00,,,0.00,WUHU21623XXSP,2013-09-22 02:12:00,
2013-09-21 19:17:00,48.9,27.3,29.90,South,180,0.0,0.0,43,0.00,,,0.00,WUHU21623XXSP,2013-09-22 02:17:00,
2013-09-21 19:22:00,48.7,26.5,29.90,NW,315,0.0,0.0,42,0.00,,,0.00,WUHU21623XXSP,2013-09-22 02:22:00,
2013-09-21 19:30:00,48.6,26.9,29.90,SSE,157,0.0,0.0,43,0.00,,,0.00,WUHU21623XXSP,2013-09-22 02:30:00,
2013-09-21 19:35:00,48.6,26.9,29.91,SSE,157,0.0,0.0,43,0.00,,,0.00,WUHU21623XXSP,2013-09-22 02:35:00,
2013-09-21 19:40:00,48.4,26.8,29.91,ENE,67,0.0,0.0,43,0.00,,,0.00,WUHU21623XXSP,2013-09-22 02:40:00,
2013-09-21 19:45:00,48.4,26.8,29.91,ENE,67,0.0,0.0,43,0.00,,,0.00,WUHU21623XXSP,2013-09-22 02:45:00,
2013-09-21 19:52:00,48.2,26.6,29.91,SE,135,0.0,0.0,43,0.00,,,0.00,WUHU21623XXSP,2013-09-22 02:52:00,
2013-09-21 19:57:00,48.0,26.4,29.92,SSE,157,0.0,0.0,43,0.00,,,0.00,WUHU21623XXSP,2013-09-22 02:57:00,
2013-09-21 20:02:00,48.0,26.4,29.92,SSE,157,0.0,0.0,42,0.00,,,0.00,WUHU21623XXSP,2013-09-22 03:02:00,
2013-09-21 20:07:00,47.8,25.7,29.92,South,180,4.9,4.9,42,0.00,,,0.00,WUHU21623XXSP,2013-09-22 03:07:00,
2013-09-21 20:13:00,47.7,26.1,29.92,South,180,5.1,5.1,43,0.00,,,0.00,WUHU21623XXSP,2013-09-22 03:13:00,
2013-09-21 20:19:00,47.5,25.4,29.92,SSW,202,0.0,5.1,42,0.00,,,0.00,WUHU21623XXSP,2013-09-22 03:19:00,
2013-09-21 20:24:00,47.3,25.3,29.92,SE,135,0.0,0.0,42,0.00,,,0.00,WUHU21623XXSP,2013-09-22 03:24:00,
2013-09-21 20:29:00,47.3,25.3,29.91,West,270,0.0,0.0,42,0.00,,,0.00,WUHU21623XXSP,2013-09-22 03:29:00,
2013-09-21 20:34:00,47.1,25.1,29.91,WNW,292,0.0,0.0,42,0.00,,,0.00,WUHU21623XXSP,2013-09-22 03:34:00,
2013-09-21 20:43:00,47.1,26.2,29.88,NNW,337,0.7,0.7,44,0.00,,,0.00,WUHU21623XXSP,2013-09-22 03:43:00,
2013-09-21 20:49:00,47.1,26.7,29.89,WNW,292,0.0,0.7,45,0.00,,,0.00,WUHU21623XXSP,2013-09-22 03:49:00,
2013-09-21 20:54:00,47.1,26.7,29.90,West,270,0.0,0.0,44,0.00,,,0.00,WUHU21623XXSP,2013-09-22 03:54:00,
2013-09-21 20:59:00,46.9,26.0,29.91,South,180,0.0,0.0,44,0.00,,,0.00,WUHU21623XXSP,2013-09-22 03:59:00,
2013-09-21 21:01:00,46.9,26.0,29.91,South,180,0.0,0.0,44,0.00,,,0.00,WUHU21623XXSP,2013-09-22 04:01:00,
2013-09-21 21:04:00,46.8,25.8,29.91,South,180,0.0,0.0,44,0.00,,,0.00,WUHU21623XXSP,2013-09-22 04:04:00,
2013-09-21 21:09:00,46.8,25.8,29.91,NNE,22,0.0,0.0,44,0.00,,,0.00,WUHU21623XXSP,2013-09-22 04:09:00,
2013-09-21 21:14:00,46.6,25.7,29.91,North,0,0.0,0.0,44,0.00,,,0.00,WUHU21623XXSP,2013-09-22 04:14:00,
2013-09-21 21:20:00,46.6,25.7,29.92,SW,225,0.0,0.0,44,0.00,,,0.00,WUHU21623XXSP,2013-09-22 04:20:00,
2013-09-21 21:26:00,46.6,25.7,29.92,South,180,0.0,0.0,44,0.00,,,0.00,WUHU21623XXSP,2013-09-22 04:26:00,
2013-09-21 21:31:00,46.4,25.7,29.92,South,180,0.0,0.0,44,0.00,,,0.00,WUHU21623XXSP,2013-09-22 04:31:00,
2013-09-21 21:36:00,46.2,25.4,29.92,SSE,157,0.0,0.0,44,0.00,,,0.00,WUHU21623XXSP,2013-09-22 04:36:00,
2013-09-21 21:45:00,46.2,25.9,29.93,West,270,0.0,0.0,45,0.00,,,0.00,WUHU21623XXSP,2013-09-22 04:45:00,
2013-09-21 21:50:00,46.2,25.9,29.93,WNW,292,0.0,0.0,45,0.00,,,0.00,WUHU21623XXSP,2013-09-22 04:50:00,
2013-09-21 21:56:00,46.2,25.9,29.93,SSW,202,0.0,0.0,45,0.00,,,0.00,WUHU21623XXSP,2013-09-22 04:56:00,
2013-09-21 22:01:00,46.2,25.9,29.93,SSW,202,0.0,0.0,45,0.00,,,0.00,WUHU21623XXSP,2013-09-22 05:01:00,
2013-09-21 22:06:00,46.0,25.9,29.93,East,90,0.0,0.0,45,0.00,,,0.00,WUHU21623XXSP,2013-09-22 05:06:00,
2013-09-21 22:11:00,46.0,26.3,29.92,East,90,0.0,0.0,46,0.00,,,0.00,WUHU21623XXSP,2013-09-22 05:11:00,
2013-09-21 22:16:00,46.0,26.8,29.92,East,90,0.0,0.0,47,0.00,,,0.00,WUHU21623XXSP,2013-09-22 05:16:00,
2013-09-21 22:21:00,46.0,26.8,29.92,East,90,0.0,0.0,47,0.00,,,0.00,WUHU21623XXSP,2013-09-22 05:21:00,
2013-09-21 22:28:00,45.7,26.0,29.92,NE,45,0.0,0.0,46,0.00,,,0.00,WUHU21623XXSP,2013-09-22 05:28:00,
2013-09-21 22:33:00,45.7,26.5,29.92,NE,45,0.0,0.0,47,0.00,,,0.00,WUHU21623XXSP,2013-09-22 05:33:00,
2013-09-21 22:38:00,45.5,26.3,29.92,ENE,67,0.0,0.0,47,0.00,,,0.00,WUHU21623XXSP,2013-09-22 05:38:00,
2013-09-21 22:43:00,45.5,26.3,29.93,ENE,67,0.0,0.0,47,0.00,,,0.00,WUHU21623XXSP,2013-09-22 05:43:00,
2013-09-21 22:52:00,45.1,26.5,29.93,NE,45,0.0,0.0,48,0.00,,,0.00,WUHU21623XXSP,2013-09-22 05:52:00,
2013-09-21 23:00:00,45.1,27.1,29.93,NE,45,0.0,0.0,50,0.00,,,0.00,WUHU21623XXSP,2013-09-22 06:00:00,
2013-09-21 23:05:00,45.1,27.1,29.93,NE,45,0.0,0.0,50,0.00,,,0.00,WUHU21623XXSP,2013-09-22 06:05:00,
2013-09-21 23:13:00,45.1,27.6,29.93,NE,45,0.0,0.0,50,0.00,,,0.00,WUHU21623XXSP,2013-09-22 06:13:00,
2013-09-21 23:19:00,45.3,28.2,29.94,NE,45,0.0,0.0,51,0.00,,,0.00,WUHU21623XXSP,2013-09-22 06:19:00,
2013-09-21 23:24:00,45.3,28.2,29.93,NE,45,0.0,0.0,51,0.00,,,0.00,WUHU21623XXSP,2013-09-22 06:24:00,
2013-09-21 23:30:00,45.5,27.9,29.93,NE,45,0.0,0.0,50,0.00,,,0.00,WUHU21623XXSP,2013-09-22 06:30:00,
2013-09-21 23:35:00,45.5,28.4,29.94,SSW,202,1.3,1.3,51,0.00,,,0.00,WUHU21623XXSP,2013-09-22 06:35:00,
2013-09-21 23:40:00,45.7,28.6,29.93,South,180,0.0,1.3,51,0.00,,,0.00,WUHU21623XXSP,2013-09-22 06:40:00,
2013-09-21 23:45:00,45.5,28.4,29.93,SSE,157,1.1,1.1,51,0.00,,,0.00,WUHU21623XXSP,2013-09-22 06:45:00,
2013-09-21 23:51:00,45.5,28.4,29.94,SSE,157,0.0,1.1,51,0.00,,,0.00,WUHU21623XXSP,2013-09-22 06:51:00,
2013-09-21 23:56:00,45.5,28.4,29.94,SSE,157,0.0,0.0,51,0.00,,,0.00,WUHU21623XXSP,2013-09-22 06:56:00,